Location: Unspecified
(0.0000°N, 0.0000°E)
Time: 19:34:00
(UTC+00:00)

Vanguard 1 Rocket - Pass Details

Date: 20 April 2026
Orbit: 655 x 4212 km, 34.3° (Epoch: 17 May)

Event Time Altitude Azimuth Distance (km) Brightness Sun altitude
Rises 20:56:48 0° 274° (W) 7,180 12.7 -43.3°
Reaches altitude 10° 21:02:25 10° 284° (WNW) 6,602 12.3 -44.7°
Maximum altitude 21:21:32 30° 338° (NNW) 5,849 11.5 -49.2°
Drops below altitude 10° 21:42:03 10° 33° (NNE) 6,938 11.7 -54.1°
Sets 21:48:25 0° 44° (NE) 7,558 11.9 -55.6°
